{"data":{"norad_id":60346,"epoch":"2026-09-21T22:26:41.589312Z","epoch_age_seconds":61578,"freshness":"FRESH","line1":"1 60346U 24136T   26264.93520358  .00000533  00000+0  26897-4 0  9996","line2":"2 60346  53.1608 243.2024 0000766  49.7960 310.3110 15.34390156119721","mean_motion":15.34390156,"eccentricity":7.66e-5,"inclination_deg":53.1608,"raan_deg":243.2024,"arg_perigee_deg":49.796,"mean_anomaly_deg":310.311,"bstar":2.6897e-5,"rev_number":11972,"period_min":93.848360168963,"perigee_km":462.20848820245,"apogee_km":463.25650940967,"semimajor_km":6840.8694988061,"source":"CELESTRAK","updated_at":"2026-09-22T09:00:49.222252Z"}}